THORAD AGENA D DEB, 4652

Orbit data source: Space-Track

THORAD AGENA D DEB, 4652 is space debris in SSO originally from a launch on Wed, 08 Apr 1970 UTC launched from the Air Force Western Test Range (AFWTR). Debris objects in space refer to the collection of defunct objects orbiting the Earth. Examples of debris include non-operational satellites, rocket bodies, and fragments generated from explosions, collisions, or faulty payload assembly.

Loading next visibility...
Identifier
4652, 1970-025AL
Orbit
SSO
Last TLE update
1 day ago
Origin
Manufacturer
Unknown
Mission
Spacecraft
Bus & Motor
Unknown
Mass
Unknown
Launch date (UTC)
1970-04-08 (55 years ago)
Launch vehicle
Unknown
Launch site
Air Force Western Test Range (AFWTR)
Object type
Payload
Rocket body
Debris
Shape & HBR
Unknown
Radar Cross Section
Small (<0.1 m²)

Expand to show TLE details & history

TLE from 1 day ago
0 THORAD AGENA D DEB
1 04652U 70025AL  25182.14700209  .00000661  00000-0  57377-3 0  9997
2 04652  99.5845 320.3815 0032018  80.1598 100.8374 13.89801260768446
Epoch: 2025-07-01T03:31Z
TLE epoch observation values (Epoch: 2025-07-01T03:31:40.98Z)
Latitude
-1.46108°
Longitude
167.76863°
Altitude
936.845 km
Speed
7.381 km/s
True Right ascension
09h 20m 32s
True Declination
-1° 27' 09"
Sunlit
Object was in daylight at epoch
Visualization orbit readout
Latitude
34.50697°
Longitude
175.675°
Altitude
924.8 km
Speed
7.397 km/s
Apparent Right ascension
07h 00m 47s
Apparent Declination
0° 22' 15"
Sunlit
Object is in daylight
Visualization observer readout
Local Sidereal Time
15:13:49
Azimuth
293.111° NW
Elevation
-24.612°
Doppler factor
1
Orbital elements
Apogee altitude
949.958 km
Perigee altitude
903.182 km
Semi-major axis
7,304.707 km
Eccentricity
0.0032
Inclination
99.5845°
RAAN
320.3815°
Arg. of periapsis
80.1598°
True anomaly
Unknown
Mean anomaly
100.8374°
Eccentric anomaly
Unknown
Mean motion
3.47647 °/min
Orbital period
103.55 mins
BSTAR
0.00057377
Loading maneuver chart data...
Loading SW <> Apogee altitude chart data...

THORAD AGENA D DEB Visibility forecast

Observer location: undefined°, undefined°

Span
Click to sort rows by Start time (UTC) header in descending order
Start Az.
Max El. time (UTC)
Max El. Az.
Max El.
End time (UTC)
End Az.
9 mins2025-07-02 08:10:33.610Z120.042° SE2025-07-02 08:14:33.610Z68.61° E27.019°2025-07-02 08:19:33.610Z6.424° NNE
9 mins2025-07-02 09:52:33.610Z199.803° SSW2025-07-02 09:56:33.610Z255.567° W31.351°2025-07-02 10:01:33.610Z326.053° NNW
5 mins2025-07-02 20:46:33.610Z70.702° E2025-07-02 20:48:33.610Z94.132° ESE15.344°2025-07-02 20:51:33.610Z126.355° SE
10 mins2025-07-02 22:26:33.610Z7.861° NNE2025-07-02 22:31:33.610Z254.227° W42.43°2025-07-02 22:36:33.610Z206.032° SW
|